Radiation Dose at Monitoring Post of Fukushima Daini Nuclear Power Station
Date,Time,MP-1(microSv/h),MP-2(microSv/h),MP-3(microSv/h),MP-4(microSv/h),MP-5(microSv/h),MP-6(microSv/h),MP-7(microSv/h),Wind Direction,Wind Velocity(m/s),Rain
2024/03/20,00:00,0.149,0.130,0.212,0.202,0.208,0.117,0.077,south-southwest,4.8,No
2024/03/20,00:10,0.149,0.131,0.211,0.201,0.206,0.117,0.076,south-southwest,4.6,No
2024/03/20,00:20,0.148,0.130,0.212,0.200,0.207,0.118,0.077,south-southwest,3.7,No
2024/03/20,00:30,0.148,0.130,0.212,0.200,0.208,0.117,0.077,south-southwest,3.4,No
2024/03/20,00:40,0.149,0.131,0.210,0.201,0.207,0.117,0.077,south-southwest,3.1,No
2024/03/20,00:50,0.149,0.130,0.211,0.200,0.208,0.117,0.077,southwest,3.1,No
2024/03/20,01:00,0.148,0.130,0.212,0.200,0.207,0.117,0.077,southwest,2.5,No
2024/03/20,01:10,0.149,0.130,0.211,0.200,0.208,0.117,0.077,southwest,2.3,No
2024/03/20,01:20,0.148,0.131,0.212,0.201,0.207,0.116,0.076,southwest,2.5,No
2024/03/20,01:30,0.148,0.130,0.212,0.201,0.208,0.117,0.077,southwest,2.0,No
2024/03/20,01:40,0.149,0.131,0.212,0.200,0.208,0.117,0.077,southwest,2.4,No
2024/03/20,01:50,0.149,0.130,0.212,0.200,0.207,0.117,0.077,southwest,1.2,No
2024/03/20,02:00,0.149,0.130,0.211,0.201,0.206,0.117,0.077,southwest,1.3,No
2024/03/20,02:10,0.150,0.130,0.211,0.200,0.206,0.117,0.077,west-southwest,0.6,No
2024/03/20,02:20,0.148,0.130,0.211,0.201,0.207,0.117,0.076,south-southwest,1.0,No
2024/03/20,02:30,0.149,0.130,0.211,0.200,0.207,0.117,0.077,southwest,1.2,No
2024/03/20,02:40,0.150,0.131,0.212,0.201,0.207,0.117,0.077,west-southwest,1.2,No
2024/03/20,02:50,0.149,0.130,0.213,0.200,0.207,0.117,0.077,south-southwest,1.9,No
2024/03/20,03:00,0.149,0.130,0.213,0.200,0.206,0.116,0.077,south,1.0,No
2024/03/20,03:10,0.149,0.131,0.212,0.201,0.208,0.118,0.077,east-southeast,0.7,No
2024/03/20,03:20,0.151,0.130,0.212,0.201,0.208,0.117,0.077,east-southeast,0.7,No
2024/03/20,03:30,0.150,0.131,0.212,0.202,0.208,0.117,0.077,east-southeast,1.1,No
2024/03/20,03:40,0.149,0.130,0.212,0.201,0.206,0.117,0.077,southeast,1.5,No
2024/03/20,03:50,0.148,0.129,0.213,0.200,0.207,0.118,0.077,southeast,1.1,No
2024/03/20,04:00,0.150,0.131,0.213,0.201,0.207,0.118,0.076,east-southeast,1.1,No
2024/03/20,04:10,0.150,0.130,0.212,0.202,0.207,0.118,0.078,east-northeast,0.6,No
2024/03/20,04:20,0.149,0.130,0.213,0.200,0.208,0.118,0.078,east-southeast,1.0,No
2024/03/20,04:30,0.149,0.131,0.213,0.201,0.207,0.117,0.077,east,1.3,No
2024/03/20,04:40,0.149,0.131,0.212,0.201,0.206,0.118,0.077,east-northeast,1.2,No
2024/03/20,04:50,0.149,0.130,0.212,0.201,0.207,0.118,0.078,northeast,0.8,No
2024/03/20,05:00,0.149,0.130,0.213,0.201,0.206,0.118,0.077,-,CALM,No
2024/03/20,05:10,0.149,0.130,0.212,0.200,0.207,0.118,0.077,-,CALM,No
2024/03/20,05:20,0.148,0.131,0.212,0.200,0.207,0.118,0.077,-,CALM,No
2024/03/20,05:30,0.149,0.130,0.212,0.201,0.207,0.118,0.077,-,CALM,No
2024/03/20,05:40,0.148,0.130,0.212,0.201,0.206,0.117,0.077,-,CALM,No
2024/03/20,05:50,0.150,0.131,0.213,0.201,0.207,0.118,0.076,-,CALM,No
2024/03/20,06:00,0.149,0.131,0.213,0.201,0.207,0.118,0.077,-,CALM,No
2024/03/20,06:10,0.149,0.129,0.212,0.201,0.207,0.117,0.076,-,CALM,No
2024/03/20,06:20,0.149,0.131,0.212,0.200,0.206,0.118,0.077,-,CALM,No
2024/03/20,06:30,0.149,0.130,0.212,0.200,0.207,0.117,0.077,north-northeast,0.9,No
2024/03/20,06:40,0.150,0.131,0.212,0.201,0.207,0.117,0.077,north,0.9,No
2024/03/20,06:50,0.148,0.130,0.212,0.200,0.207,0.118,0.077,north-northwest,1.0,No
2024/03/20,07:00,0.149,0.131,0.212,0.201,0.208,0.117,0.076,north,1.4,No
2024/03/20,07:10,0.150,0.131,0.211,0.200,0.207,0.117,0.077,north,2.0,No
2024/03/20,07:20,0.149,0.132,0.213,0.201,0.207,0.117,0.076,north-northwest,3.0,No
2024/03/20,07:30,0.150,0.130,0.212,0.202,0.207,0.118,0.077,north-northwest,5.6,No
2024/03/20,07:40,0.149,0.131,0.213,0.200,0.208,0.117,0.077,north-northwest,6.0,No
2024/03/20,07:50,0.150,0.132,0.211,0.199,0.208,0.118,0.076,north-northwest,4.9,No
2024/03/20,08:00,0.148,0.130,0.212,0.200,0.209,0.118,0.078,north-northwest,4.1,No
2024/03/20,08:10,0.149,0.130,0.211,0.200,0.207,0.118,0.077,north-northwest,4.1,No
2024/03/20,08:20,0.150,0.131,0.212,0.201,0.208,0.118,0.077,north-northwest,4.2,No
2024/03/20,08:30,0.149,0.131,0.211,0.201,0.209,0.118,0.077,north-northwest,3.3,No
2024/03/20,08:40,0.149,0.130,0.213,0.201,0.208,0.118,0.077,north,3.2,No
2024/03/20,08:50,0.149,0.130,0.212,0.199,0.208,0.118,0.077,north-northwest,3.2,No
2024/03/20,09:00,0.149,0.131,0.213,0.202,0.209,0.117,0.077,north-northwest,4.3,No
2024/03/20,09:10,0.149,0.132,0.212,0.201,0.208,0.117,0.078,north-northwest,3.4,No
2024/03/20,09:20,0.150,0.130,0.213,0.199,0.208,0.118,0.077,north-northwest,4.0,No
2024/03/20,09:30,0.149,0.131,0.212,0.201,0.209,0.119,0.077,north-northwest,4.7,No
2024/03/20,09:40,0.149,0.131,0.212,0.201,0.206,0.118,0.077,north-northwest,5.1,No
2024/03/20,09:50,0.149,0.130,0.212,0.201,0.207,0.118,0.077,north-northwest,5.0,No
2024/03/20,10:00,0.150,0.131,0.212,0.201,0.208,0.117,0.077,north-northwest,4.5,No
2024/03/20,10:10,0.149,0.131,0.212,0.202,0.208,0.117,0.078,north-northwest,4.2,No
2024/03/20,10:20,0.149,0.130,0.212,0.201,0.207,0.118,0.077,northwest,5.2,No
2024/03/20,10:30,0.149,0.130,0.213,0.201,0.209,0.118,0.077,north-northwest,5.3,No
2024/03/20,10:40,0.148,0.131,0.212,0.201,0.207,0.118,0.077,north-northwest,6.0,No
2024/03/20,10:50,0.149,0.131,0.212,0.200,0.207,0.117,0.078,north-northwest,5.1,No
2024/03/20,11:00,0.149,0.129,0.212,0.201,0.208,0.118,0.077,north-northwest,5.4,No
2024/03/20,11:10,0.148,0.131,0.213,0.202,0.208,0.118,0.077,north-northwest,7.2,Yes
2024/03/20,11:20,0.151,0.131,0.211,0.201,0.207,0.117,0.077,north-northwest,6.8,Yes
2024/03/20,11:30,0.150,0.130,0.211,0.199,0.208,0.118,0.077,north-northwest,5.8,Yes
2024/03/20,11:40,0.148,0.131,0.212,0.201,0.208,0.119,0.077,north-northwest,6.7,Yes
2024/03/20,11:50,0.149,0.131,0.213,0.201,0.209,0.118,0.077,north-northwest,7.5,Yes
2024/03/20,12:00,0.150,0.132,0.211,0.200,0.209,0.118,0.077,north-northwest,6.9,Yes
2024/03/20,12:10,0.150,0.132,0.213,0.202,0.208,0.119,0.078,north-northwest,6.1,Yes
2024/03/20,12:20,0.152,0.133,0.216,0.204,0.210,0.121,0.079,northwest,5.3,Yes
2024/03/20,12:30,0.153,0.133,0.215,0.203,0.210,0.120,0.080,northwest,4.4,Yes
2024/03/20,12:40,0.151,0.133,0.215,0.203,0.209,0.120,0.079,north-northwest,6.6,Yes
2024/03/20,12:50,0.153,0.133,0.215,0.202,0.210,0.120,0.079,north-northwest,5.7,Yes
2024/03/20,13:00,0.152,0.133,0.214,0.202,0.210,0.119,0.079,north-northwest,5.6,Yes
2024/03/20,13:10,0.151,0.133,0.212,0.202,0.208,0.119,0.078,north,5.5,No
2024/03/20,13:20,0.150,0.132,0.212,0.201,0.207,0.118,0.078,north-northwest,5.7,No
2024/03/20,13:30,0.151,0.132,0.213,0.202,0.208,0.119,0.078,north-northwest,7.9,No
2024/03/20,13:40,0.149,0.130,0.213,0.200,0.209,0.118,0.077,north-northwest,9.5,No
2024/03/20,13:50,0.149,0.132,0.213,0.201,0.208,0.118,0.077,north-northwest,9.2,No
2024/03/20,14:00,0.150,0.131,0.212,0.201,0.207,0.118,0.077,north-northwest,9.2,Yes
2024/03/20,14:10,0.150,0.132,0.213,0.201,0.208,0.118,0.078,north-northwest,10.0,Yes
2024/03/20,14:20,0.150,0.132,0.214,0.201,0.208,0.119,0.078,north-northwest,7.0,Yes
2024/03/20,14:30,0.150,0.133,0.215,0.203,0.209,0.120,0.079,north-northwest,10.1,Yes
2024/03/20,14:40,0.151,0.133,0.213,0.202,0.209,0.120,0.079,northwest,10.0,Yes
2024/03/20,14:50,0.152,0.134,0.214,0.202,0.209,0.119,0.079,north-northwest,9.0,Yes
2024/03/20,15:00,0.151,0.133,0.213,0.202,0.208,0.120,0.079,north-northwest,10.1,Yes
2024/03/20,15:10,0.150,0.132,0.213,0.202,0.207,0.120,0.079,north-northwest,8.8,Yes
2024/03/20,15:20,0.151,0.131,0.213,0.202,0.209,0.119,0.078,north-northwest,11.5,No
2024/03/20,15:30,0.150,0.132,0.213,0.201,0.208,0.119,0.077,north-northwest,9.5,No
2024/03/20,15:40,0.150,0.131,0.213,0.200,0.208,0.118,0.077,north-northwest,10.3,Yes
2024/03/20,15:50,0.149,0.131,0.212,0.201,0.207,0.118,0.077,north-northwest,8.4,No
2024/03/20,16:00,0.150,0.130,0.213,0.199,0.209,0.119,0.077,north-northwest,10.6,Yes
2024/03/20,16:10,0.149,0.131,0.213,0.201,0.207,0.119,0.077,northwest,9.4,Yes
2024/03/20,16:20,0.149,0.131,0.211,0.201,0.207,0.118,0.077,north-northwest,10.0,Yes
2024/03/20,16:30,0.149,0.131,0.213,0.199,0.207,0.118,0.077,northwest,10.9,Yes
2024/03/20,16:40,0.149,0.130,0.211,0.201,0.207,0.117,0.077,north-northwest,9.6,Yes
2024/03/20,16:50,0.150,0.131,0.212,0.200,0.208,0.118,0.076,northwest,11.2,Yes
2024/03/20,17:00,0.148,0.131,0.213,0.200,0.209,0.118,0.077,north-northwest,9.2,Yes
2024/03/20,17:10,0.149,0.131,0.212,0.200,0.208,0.119,0.077,north-northwest,10.6,Yes
2024/03/20,17:20,0.149,0.131,0.212,0.201,0.208,0.118,0.076,north-northwest,10.4,Yes
2024/03/20,17:30,0.150,0.131,0.212,0.201,0.208,0.118,0.077,north-northwest,9.7,Yes
2024/03/20,17:40,0.150,0.130,0.213,0.201,0.208,0.118,0.077,north-northwest,9.2,Yes
2024/03/20,17:50,0.149,0.132,0.212,0.201,0.207,0.117,0.078,north-northwest,9.5,Yes
2024/03/20,18:00,0.148,0.131,0.212,0.201,0.208,0.117,0.076,north-northwest,11.8,Yes
2024/03/20,18:10,0.148,0.131,0.212,0.201,0.207,0.118,0.078,northwest,11.1,Yes
2024/03/20,18:20,0.150,0.131,0.212,0.201,0.208,0.118,0.077,north-northwest,9.6,Yes
2024/03/20,18:30,0.150,0.132,0.213,0.200,0.206,0.118,0.077,northwest,10.9,Yes
2024/03/20,18:40,0.151,0.132,0.213,0.201,0.208,0.119,0.078,northwest,11.7,Yes
2024/03/20,18:50,0.152,0.133,0.214,0.203,0.209,0.120,0.080,northwest,11.7,Yes
2024/03/20,19:00,0.153,0.134,0.215,0.204,0.209,0.121,0.080,northwest,11.2,Yes
2024/03/20,19:10,0.152,0.135,0.216,0.202,0.210,0.120,0.080,northwest,8.6,Yes
2024/03/20,19:20,0.152,0.134,0.215,0.202,0.209,0.121,0.081,northwest,8.5,Yes
2024/03/20,19:30,0.152,0.134,0.215,0.201,0.209,0.121,0.080,northwest,9.0,Yes
2024/03/20,19:40,0.152,0.135,0.215,0.202,0.209,0.121,0.080,northwest,9.5,Yes
2024/03/20,19:50,0.152,0.134,0.213,0.203,0.209,0.122,0.081,northwest,9.0,Yes
2024/03/20,20:00,0.152,0.134,0.214,0.203,0.208,0.121,0.081,northwest,9.3,Yes
2024/03/20,20:10,0.151,0.133,0.214,0.202,0.208,0.120,0.080,northwest,9.4,Yes
2024/03/20,20:20,0.151,0.133,0.213,0.201,0.208,0.120,0.079,northwest,9.2,Yes
2024/03/20,20:30,0.150,0.133,0.213,0.201,0.208,0.119,0.079,north-northwest,9.2,Yes
2024/03/20,20:40,0.150,0.132,0.212,0.201,0.207,0.118,0.079,north-northwest,9.5,Yes
2024/03/20,20:50,0.150,0.132,0.212,0.200,0.207,0.118,0.078,north-northwest,10.9,No
2024/03/20,21:00,0.150,0.132,0.212,0.199,0.206,0.119,0.078,north-northwest,9.5,No
2024/03/20,21:10,0.149,0.132,0.212,0.200,0.207,0.118,0.078,north-northwest,8.6,No
2024/03/20,21:20,0.149,0.130,0.211,0.199,0.207,0.118,0.077,north-northwest,8.5,No
2024/03/20,21:30,0.149,0.131,0.212,0.200,0.206,0.117,0.077,north-northwest,9.0,No
2024/03/20,21:40,0.149,0.130,0.210,0.199,0.207,0.117,0.077,north-northwest,9.3,No
2024/03/20,21:50,0.149,0.130,0.211,0.200,0.208,0.117,0.076,north-northwest,9.3,No
2024/03/20,22:00,0.149,0.130,0.211,0.199,0.205,0.117,0.076,north-northwest,8.9,No
2024/03/20,22:10,0.149,0.130,0.210,0.198,0.207,0.117,0.076,north-northwest,9.0,No
2024/03/20,22:20,0.149,0.129,0.210,0.198,0.207,0.117,0.076,north-northwest,10.9,No
2024/03/20,22:30,0.149,0.130,0.212,0.198,0.207,0.117,0.076,northwest,11.4,No
2024/03/20,22:40,0.147,0.130,0.210,0.198,0.206,0.117,0.076,north-northwest,9.2,No
2024/03/20,22:50,0.148,0.130,0.210,0.199,0.208,0.117,0.076,north-northwest,8.1,No
2024/03/20,23:00,0.148,0.129,0.210,0.198,0.206,0.117,0.076,north-northwest,7.4,No
2024/03/20,23:10,0.148,0.130,0.210,0.198,0.207,0.117,0.076,north-northwest,7.1,No
2024/03/20,23:20,0.148,0.129,0.210,0.198,0.206,0.117,0.077,north-northwest,7.5,No
2024/03/20,23:30,0.149,0.129,0.210,0.198,0.206,0.117,0.077,north-northwest,9.2,No
2024/03/20,23:40,0.149,0.130,0.211,0.198,0.206,0.118,0.077,north-northwest,9.0,No
2024/03/20,23:50,0.148,0.130,0.209,0.199,0.206,0.117,0.076,north-northwest,8.8,No
